Погода в Кургане

Погода в Кургане : погода сейчас, прогноз погоды и архив. Всё, что Вы хотите узнать о погоде в Кургане!

Хотите узнать прогноз погоды в Кургане? Тогда Вам сюда: Погода в Кургане

Поиск расширенной информации на нашем сайте:

Другие новости

Новости СМИ2

Главная страница сайта

Новости сайта

03.07.2017

Напоминаем, что на нашем специализированном сайте Метеоцентр.Азия вы можете получить высокодетализированные автоматические прогнозы погоды по пунктам России, СНГ и мира в авиационном формате (включающие направление и скорость ветра, видимость, явления погоды, количество и форму облачности, нижнюю и верхнюю границу облачности).


Погода в Кургане - сегодня

Время (UTC), дата Ветер
(°,м/с) 
Видим.   Явления Облачность Т
(°С)
Тd
(°С)
f(%) Тe
(°С)
Pmin
(гПа)
dP
(гПа)
Po
(мм)
O2
(г/м3)
Тmin Tmax R s Состояние
почвы
00 17.08.18 180 (Ю) 10 км  слаб. ливневой дождь  10/5 1000 м кучево-дожд., средняя 
[Cb cap|Ac und]
+15.9 +12.3 79 +21  1010.8  -1.4  752  284           
03 17.08.18 190 (Ю) 20000 м  в посл. час ливневой дождь  10/5 1000 м кучево-дожд., средняя, верхняя 
[Cb cap|Ac trans|Ci sp]
+17 +12.5 75 +22  1009.9  -0.8  751  282  +14.7        влажная 
06 17.08.18 210 (ЮЗ) 20000 м  {ливн. осадки}  8/3 1000 м кучево-дожд., средняя, верхняя 
[Cb cap|Ac trans|Ci fib]
+23.6 +13.9 55 +30  1008.7  -1  750  275           
09 17.08.18 250 (З) 20000 м    8/5 1000 м кучево-дожд., средняя, верхняя 
[Cb cap|Ac trans|Ci fib]
+24.3 +14 53 +31  1007.7  -1  749  274           
18 17.08.18 270 (З) 10 км    3/0 средняя 
[Ac trans]
+14.1 +11.1 82 +18  1011.4  0.8  752  286           
21 17.08.18 270 (З) 10 км    4/4 1000 м 
[Sc]
+12.3 +10.3 88 +16  1012  0.5  752  288           
00 18.08.18 290 (З) 10 км    3/3 1000 м 
[Sc]
+11.4 +8.6 83 +12  1012.7  0.6  753  290           
03 18.08.18 300 (СЗ) 20000 м    10/10 1000 м кучево-дожд. 
[Cb cap]
+11.8 +8.1 78 +12  1013.9  1.2  754  290  +10.9        сухая 
06 18.08.18 310 (СЗ) 20000 м    10/8 1000 м кучево-дожд., средняя 
[Cb cap|Ac und]
+14.5 +8.6 68 +15  1014.2  0.4  754  287           
12 18.08.18 320 (СЗ) 4{10}  20000 м    10/6 1000 м кучево-дожд., средняя 
[Cb cap|Ac und]
+15.9 +7.9 59 +16  1014.9  0.9  755  286           
18 18.08.18 330 (СЗ) 10 км    10/6 1000 м кучево-дожд., средняя 
[Cb cap|Ac und]
+12.6 +9.4 81 +13  1016.3  0.3  756  289           
21 18.08.18 350 (С) 10 км    10/4 1000 м кучево-дожд., средняя 
[Cb cap|Ac und]
+12.4 +8.9 79 +13  1015.9  -0.4  755  290           
00 19.08.18 360 (С) 10 км    10/4 1000 м кучево-дожд., средняя 
[Cb cap|Ac und]
+11.9 +8.9 82 +12  1016.6  0.6  756  290           
03 19.08.18 350 (С) 20000 м    10/6 1000 м кучево-дожд., средняя 
[Cb cap|Ac und]
+12.1 +9.1 82 +12  1016.7  0.1  756  290  +11.6        сухая 
06 19.08.18 010 (С) 20000 м    10/10 600 м 
[Sc]
+13.7 +9.1 74 +13  1016.4  -0.3  756  288           
09 19.08.18 010 (С) 20000 м    10/10 600 м 
[Sc]
+14.7 +9.2 70 +15  1015.6  -0.7  755  287           
12 19.08.18 350 (С) 20000 м  в посл. час ливневой дождь  10/10 1000 м кучево-дожд. 
[Cb cap]
+13.1 +10.1 82 +14  1015.7  755  288           
18 19.08.18 360 (С) 10 км  слаб. ливневой дождь  10/6 1000 м кучево-дожд., средняя 
[Cb cap|Ac und]
+11.7 +10.5 92 +15  1015.1  -0.5  755  290           
21 19.08.18 360 (С) 10 км  {ливн. осадки}  10/4 1000 м кучево-дожд., средняя 
[Cb cap|Ac und]
+11.1 +9.9 92 +13  1013.6  -1.5  754  290           
00 20.08.18 360 (С) 10 км  {ливн. осадки}  10/0 средняя 
[Ac und]
+9.9 +8.6 92 +11  1013  -0.6  753  291           
03 20.08.18 350 (С) 20000 м    10/10 1000 м 
[Sc]
+11 +9.5 90 +11  1012.7  -0.3  753  290  +9.5      влажная 
06 20.08.18 010 (С) 20000 м  {ливн. осадки}  10/5 600 м кучево-дожд., средняя, верхняя 
[Cb cap|Ac trans|Ci fib]
+15.4 +9.8 69 +16  1011.3  -1.3  752  285           
12 20.08.18 360 (С) 3{12}  20000 м    10/4 1000 м кучево-дожд., средняя, верхняя 
[Cb cap|Ac trans|Ci fib]
+14.5 +7.5 63 +15  1010  -0.2  751  286           
18 20.08.18 330 (СЗ) 10 км  в посл. час ливневой дождь  10/5 1000 м кучево-дожд., средняя 
[Cb cap|Ac und]
+10.5 +9 90 +11  1009.3  -0.9  750  290           
21 20.08.18 310 (СЗ) 10 км  в посл. час ливневой дождь  8/4 1000 м кучево-дожд., средняя, верхняя 
[Cb cap|Ac trans|Ci fib]
+10.3 +8.9 91 +10  1008.2  -1  749  289           
Время (UTC), дата Ветер
(°,м/с) 
Видим.   Явления Облачность Т
(°С)
Тd
(°С)
f(%) Тe
(°С)
Pmin
(гПа)
dP
(гПа)
Po
(мм)
O2
(г/м3)
Тmin Tmax R s Состояние
почвы

Для получения пояснительной информации подведите курсор к названию столбца.

ПОГОДА в Кургане - архив

Всё, что Вы хотите узнать о погоде в Кургане - удобно и подробно!

Выберите нужную дату (начиная с 1 января 2015* года) и нажмите кнопку "Найти".
Будут отображены архивные сводки погоды по пункту Курган, начиная с указанной даты.


Отображать данные в формате CSV (для использования в таблицах Excel)


Внимание! Наш архив погоды предназначен исключительно для личного некоммерческого использования в познавательных целях. Если Вам необходимы официальные справки о состоянии погоды (для производственных, юридических, коммерческих и т.п. целей), обращайтесь в органы Росгидромета.

*Примечание: данная дата относится к архиву по метеостанциям СССР (Россия, СНГ, Балтия).
Архив по метеостанциям Зарубежной Европы и Азии (кроме Китая) хранится 10 дней, по другим регионам земного шара (Китай, Африка, Америка, Австралия, Океания) - 1 день.

Курган - район местоположения метеостанции


Название, широта, долгота, высота метеостанции:
Курган 55.5°ш. 65.4°д. 74 м над ур. моря [Российская Федерация]

Дополнительная информация

В oтличие oт бoльшинства пoгoдных сайтoв мы публикуем пoдрoбную метеoинфoрмацию в детальнoм прoфессиoнальнoм фoрмате.

Характеристики температуры и влажнoсти вoздуха измеряются на высoте 2 м в тени вдали oт зданий и деревьев.
Скoрoсть ветра измеряется на высoте 10 м (на урoвне рoста челoвека скoрoсть ветра ниже в 1.5-2 раза). Если метеoстанция нахoдится в гoрoде или в лесу, тo скoрoсть ветра занижена на 2-4 м/с пo сравнению с oткрытым местoм. Скoрoсть ветра над акватoриями крупных рек и oзёр, а также на вершинах хoлмoв на 2-5 м/с выше, чем в oбычных услoвиях.
Атмoсфернoе давление в разных тoчках местнoсти мoжет значительнo oтличаться oт давления на метеoстанции, в зависимoсти oт услoвий рельефа (при пoдъёме на 10 м давление пoнижается примернo на 1 мм рт.ст.).